Time,TemperatureF,DewpointF,PressureIn,WindDirection,WindDirectionDegrees,WindSpeedMPH,WindSpeedGustMPH,Humidity,HourlyPrecipIn,Conditions,Clouds,dailyrainin,SoftwareType,DateUTC
2013-03-09 00:01:00,26.6,18.8,30.22,ESE,102,1.0,2.0,72,0.00,,CLR,0.00,VWS V14.01,2013-03-09 05:01:00,
2013-03-09 00:12:00,27.8,20.0,30.22,ESE,102,0.0,2.0,72,0.00,,CLR,0.00,VWS V14.01,2013-03-09 05:12:00,
2013-03-09 00:20:00,28.2,20.0,30.21,ESE,102,0.0,2.0,71,0.00,,CLR,0.00,VWS V14.01,2013-03-09 05:20:00,
2013-03-09 00:26:00,28.2,20.0,30.21,ESE,102,0.0,2.0,71,0.00,,CLR,0.00,VWS V14.01,2013-03-09 05:26:00,
2013-03-09 00:31:00,28.2,20.0,30.20,ESE,102,1.0,2.0,71,0.00,,CLR,0.00,VWS V14.01,2013-03-09 05:31:00,
2013-03-09 00:36:00,28.2,20.0,30.20,ESE,102,2.0,3.0,71,0.00,,CLR,0.00,VWS V14.01,2013-03-09 05:36:00,
2013-03-09 00:41:00,28.5,20.3,30.20,ESE,102,1.0,4.0,71,0.00,,CLR,0.00,VWS V14.01,2013-03-09 05:41:00,
2013-03-09 00:51:00,28.8,20.3,30.20,ESE,102,3.0,4.0,70,0.00,,CLR,0.00,VWS V14.01,2013-03-09 05:51:00,
2013-03-09 00:56:00,29.0,20.5,30.20,ESE,102,4.0,6.0,70,0.00,,CLR,0.00,VWS V14.01,2013-03-09 05:56:00,
2013-03-09 01:01:00,29.3,20.7,30.18,ESE,102,5.0,6.0,70,0.00,,CLR,0.00,VWS V14.01,2013-03-09 06:01:00,
2013-03-09 01:11:00,29.7,20.8,30.18,ESE,103,6.0,7.0,69,0.00,,CLR,0.00,VWS V14.01,2013-03-09 06:11:00,
2013-03-09 01:16:00,29.7,20.8,30.18,ESE,103,4.0,7.0,69,0.00,,CLR,0.00,VWS V14.01,2013-03-09 06:16:00,
2013-03-09 01:21:00,29.5,20.6,30.18,ESE,103,5.0,6.0,69,0.00,,CLR,0.00,VWS V14.01,2013-03-09 06:21:00,
2013-03-09 01:26:00,29.4,20.5,30.18,ESE,106,2.0,7.0,69,0.00,,CLR,0.00,VWS V14.01,2013-03-09 06:26:00,
2013-03-09 01:31:00,29.4,20.5,30.18,ESE,106,3.0,6.0,69,0.00,,CLR,0.00,VWS V14.01,2013-03-09 06:31:00,
2013-03-09 01:36:00,29.3,20.7,30.18,ESE,106,3.0,5.0,70,0.00,,CLR,0.00,VWS V14.01,2013-03-09 06:36:00,
2013-03-09 01:41:00,29.3,20.7,30.18,ESE,106,3.0,6.0,70,0.00,,CLR,0.00,VWS V14.01,2013-03-09 06:41:00,
2013-03-09 01:46:00,29.4,21.2,30.18,ESE,106,3.0,6.0,71,0.00,,CLR,0.00,VWS V14.01,2013-03-09 06:46:00,
2013-03-09 01:51:00,29.5,21.3,30.18,ESE,106,5.0,6.0,71,0.00,,CLR,0.00,VWS V14.01,2013-03-09 06:51:00,
2013-03-09 01:56:00,29.7,21.1,30.18,ESE,106,5.0,7.0,70,0.00,,CLR,0.00,VWS V14.01,2013-03-09 06:56:00,
2013-03-09 02:06:00,29.4,20.8,30.17,ESE,109,5.0,7.0,70,0.00,,CLR,0.00,VWS V14.01,2013-03-09 07:06:00,
2013-03-09 02:11:00,29.5,20.9,30.17,ESE,112,6.0,7.0,70,0.00,,CLR,0.00,VWS V14.01,2013-03-09 07:11:00,
2013-03-09 02:16:00,29.5,20.9,30.17,ESE,112,6.0,7.0,70,0.00,,CLR,0.00,VWS V14.01,2013-03-09 07:16:00,
2013-03-09 02:21:00,29.5,20.9,30.17,ESE,113,6.0,7.0,70,0.00,,CLR,0.00,VWS V14.01,2013-03-09 07:21:00,
2013-03-09 02:26:00,29.5,20.9,30.17,ESE,114,5.0,8.0,70,0.00,,CLR,0.00,VWS V14.01,2013-03-09 07:26:00,
2013-03-09 02:36:00,29.5,20.9,30.16,ESE,114,1.0,7.0,70,0.00,,CLR,0.00,VWS V14.01,2013-03-09 07:36:00,
2013-03-09 02:41:00,29.5,21.3,30.16,ESE,114,3.0,7.0,71,0.00,,CLR,0.00,VWS V14.01,2013-03-09 07:41:00,
2013-03-09 02:46:00,29.4,21.2,30.16,ESE,114,2.0,6.0,71,0.00,,CLR,0.00,VWS V14.01,2013-03-09 07:46:00,
2013-03-09 02:51:00,29.5,21.3,30.16,ESE,114,3.0,7.0,71,0.00,,CLR,0.00,VWS V14.01,2013-03-09 07:51:00,
2013-03-09 03:01:00,29.4,21.2,30.15,ESE,114,5.0,6.0,71,0.00,,CLR,0.00,VWS V14.01,2013-03-09 08:01:00,
2013-03-09 03:11:00,29.4,21.2,30.15,ESE,113,6.0,7.0,71,0.00,,CLR,0.00,VWS V14.01,2013-03-09 08:11:00,
2013-03-09 03:16:00,29.4,21.2,30.15,ESE,113,6.0,7.0,71,0.00,,CLR,0.00,VWS V14.01,2013-03-09 08:16:00,
2013-03-09 03:21:00,29.4,21.5,30.15,ESE,116,0.0,7.0,72,0.00,,CLR,0.00,VWS V14.01,2013-03-09 08:21:00,
2013-03-09 03:26:00,29.5,21.6,30.15,ESE,112,6.0,6.0,72,0.00,,CLR,0.00,VWS V14.01,2013-03-09 08:26:00,
2013-03-09 03:31:00,29.5,21.6,30.14,ESE,113,6.0,8.0,72,0.00,,CLR,0.00,VWS V14.01,2013-03-09 08:31:00,
2013-03-09 03:41:00,29.3,21.4,30.14,ESE,112,5.0,7.0,72,0.00,,CLR,0.00,VWS V14.01,2013-03-09 08:41:00,
2013-03-09 03:46:00,29.1,21.2,30.14,ESE,112,4.0,7.0,72,0.00,,CLR,0.00,VWS V14.01,2013-03-09 08:46:00,
2013-03-09 03:51:00,29.0,21.1,30.14,ESE,113,6.0,6.0,72,0.00,,CLR,0.00,VWS V14.01,2013-03-09 08:51:00,
2013-03-09 03:56:00,29.0,21.1,30.14,ESE,113,3.0,6.0,72,0.00,,CLR,0.00,VWS V14.01,2013-03-09 08:56:00,
2013-03-09 04:01:00,29.0,21.1,30.14,ESE,113,2.0,6.0,72,0.00,,CLR,0.00,VWS V14.01,2013-03-09 09:01:00,
2013-03-09 04:06:00,29.0,21.4,30.14,ESE,113,3.0,7.0,73,0.00,,CLR,0.00,VWS V14.01,2013-03-09 09:06:00,
2013-03-09 04:11:00,29.1,21.5,30.14,ESE,113,5.0,7.0,73,0.00,,CLR,0.00,VWS V14.01,2013-03-09 09:11:00,
2013-03-09 04:16:00,29.4,21.8,30.12,ESE,112,8.0,9.0,73,0.00,,CLR,0.00,VWS V14.01,2013-03-09 09:16:00,
2013-03-09 04:21:00,29.4,21.5,30.12,ESE,113,6.0,8.0,72,0.00,,CLR,0.00,VWS V14.01,2013-03-09 09:21:00,
2013-03-09 04:31:00,29.5,21.6,30.13,ESE,113,3.0,6.0,72,0.00,,CLR,0.00,VWS V14.01,2013-03-09 09:31:00,
2013-03-09 04:36:00,29.5,21.9,30.13,ESE,113,6.0,6.0,73,0.00,,CLR,0.00,VWS V14.01,2013-03-09 09:36:00,
2013-03-09 04:41:00,29.5,21.9,30.13,ESE,113,3.0,6.0,73,0.00,,CLR,0.00,VWS V14.01,2013-03-09 09:41:00,
2013-03-09 04:46:00,29.8,22.2,30.13,ESE,117,5.0,8.0,73,0.00,,CLR,0.00,VWS V14.01,2013-03-09 09:46:00,
2013-03-09 04:51:00,30.0,22.4,30.13,ESE,119,3.0,8.0,73,0.00,,CLR,0.00,VWS V14.01,2013-03-09 09:51:00,
2013-03-09 04:56:00,30.3,22.7,30.13,ESE,112,8.0,9.0,73,0.00,,CLR,0.00,VWS V14.01,2013-03-09 09:56:00,
2013-03-09 05:01:00,30.3,22.7,30.12,ESE,114,6.0,10.0,73,0.00,,CLR,0.00,VWS V14.01,2013-03-09 10:01:00,
2013-03-09 05:11:00,30.4,22.8,30.12,ESE,117,8.0,11.0,73,0.00,,CLR,0.00,VWS V14.01,2013-03-09 10:11:00,
2013-03-09 05:16:00,30.4,22.8,30.12,ESE,104,7.0,12.0,73,0.00,,CLR,0.00,VWS V14.01,2013-03-09 10:16:00,
2013-03-09 05:21:00,30.4,22.8,30.12,SE,130,6.0,12.0,73,0.00,,CLR,0.00,VWS V14.01,2013-03-09 10:21:00,
2013-03-09 05:26:00,30.3,22.7,30.12,SE,127,4.0,12.0,73,0.00,,CLR,0.00,VWS V14.01,2013-03-09 10:26:00,
2013-03-09 05:31:00,30.1,22.5,30.12,ESE,121,5.0,10.0,73,0.00,,CLR,0.00,VWS V14.01,2013-03-09 10:31:00,
2013-03-09 05:36:00,30.3,22.7,30.12,ESE,121,6.0,8.0,73,0.00,,CLR,0.00,VWS V14.01,2013-03-09 10:36:00,
2013-03-09 05:41:00,30.1,22.8,30.12,ESE,114,8.0,8.0,74,0.00,,CLR,0.00,VWS V14.01,2013-03-09 10:41:00,
2013-03-09 05:46:00,30.1,22.8,30.12,ESE,120,6.0,10.0,74,0.00,,CLR,0.00,VWS V14.01,2013-03-09 10:46:00,
2013-03-09 05:51:00,30.3,23.0,30.12,ESE,110,8.0,11.0,74,0.00,,CLR,0.00,VWS V14.01,2013-03-09 10:51:00,
2013-03-09 05:56:00,30.1,22.8,30.12,SSE,152,3.0,10.0,74,0.00,,CLR,0.00,VWS V14.01,2013-03-09 10:56:00,
2013-03-09 06:01:00,30.0,22.7,30.12,SE,136,2.0,5.0,74,0.00,,CLR,0.00,VWS V14.01,2013-03-09 11:01:00,
2013-03-09 06:11:00,30.0,23.0,30.12,ESE,104,6.0,14.0,75,0.00,,CLR,0.00,VWS V14.01,2013-03-09 11:11:00,
2013-03-09 06:21:00,30.0,23.0,30.11,ESE,110,9.0,14.0,75,0.00,,CLR,0.00,VWS V14.01,2013-03-09 11:21:00,
2013-03-09 06:26:00,30.3,23.3,30.11,SE,126,3.0,16.0,75,0.00,,CLR,0.00,VWS V14.01,2013-03-09 11:26:00,
2013-03-09 06:31:00,30.1,23.1,30.11,ESE,113,1.0,11.0,75,0.00,,CLR,0.00,VWS V14.01,2013-03-09 11:31:00,
2013-03-09 06:36:00,30.1,23.1,30.11,South,189,2.0,8.0,75,0.00,,CLR,0.00,VWS V14.01,2013-03-09 11:36:00,
2013-03-09 06:41:00,30.3,23.3,30.11,SE,145,5.0,8.0,75,0.00,,CLR,0.00,VWS V14.01,2013-03-09 11:41:00,
2013-03-09 06:46:00,30.4,23.4,30.10,SE,128,6.0,11.0,75,0.00,,CLR,0.00,VWS V14.01,2013-03-09 11:46:00,
2013-03-09 06:51:00,30.6,23.6,30.10,ESE,120,2.0,7.0,75,0.00,,CLR,0.00,VWS V14.01,2013-03-09 11:51:00,
2013-03-09 06:56:00,30.6,23.6,30.10,ESE,113,6.0,9.0,75,0.00,,CLR,0.00,VWS V14.01,2013-03-09 11:56:00,
2013-03-09 07:06:00,30.7,23.7,30.11,ESE,112,3.0,10.0,75,0.00,,CLR,0.00,VWS V14.01,2013-03-09 12:06:00,
2013-03-09 07:16:00,30.7,23.7,30.11,ESE,112,4.0,8.0,75,0.00,,CLR,0.00,VWS V14.01,2013-03-09 12:16:00,
2013-03-09 07:21:00,31.0,24.0,30.11,ESE,112,8.0,11.0,75,0.00,,CLR,0.00,VWS V14.01,2013-03-09 12:21:00,
2013-03-09 07:26:00,31.0,24.0,30.11,ESE,107,8.0,10.0,75,0.00,,CLR,0.00,VWS V14.01,2013-03-09 12:26:00,
2013-03-09 07:31:00,31.0,24.0,30.11,ESE,123,5.0,10.0,75,0.00,,CLR,0.00,VWS V14.01,2013-03-09 12:31:00,
2013-03-09 07:36:00,31.0,24.0,30.11,SE,143,5.0,7.0,75,0.00,,CLR,0.00,VWS V14.01,2013-03-09 12:36:00,
2013-03-09 07:41:00,31.2,24.2,30.11,SE,128,5.0,7.0,75,0.00,,CLR,0.00,VWS V14.01,2013-03-09 12:41:00,
2013-03-09 07:46:00,31.3,24.3,30.11,ESE,112,6.0,7.0,75,0.00,,CLR,0.00,VWS V14.01,2013-03-09 12:46:00,
2013-03-09 07:51:00,31.3,24.3,30.11,ESE,113,2.0,7.0,75,0.00,,CLR,0.00,VWS V14.01,2013-03-09 12:51:00,
2013-03-09 08:01:00,31.6,24.6,30.12,SE,130,7.0,7.0,75,0.00,,CLR,0.00,VWS V14.01,2013-03-09 13:01:00,
2013-03-09 08:06:00,31.9,24.9,30.12,ESE,121,3.0,7.0,75,0.00,,CLR,0.00,VWS V14.01,2013-03-09 13:06:00,
2013-03-09 08:11:00,32.1,25.1,30.12,SE,126,0.0,5.0,75,0.00,,CLR,0.00,VWS V14.01,2013-03-09 13:11:00,
2013-03-09 08:16:00,32.2,25.2,30.12,SE,143,2.0,8.0,75,0.00,,CLR,0.00,VWS V14.01,2013-03-09 13:16:00,
2013-03-09 08:21:00,32.4,25.0,30.12,SE,126,6.0,8.0,74,0.00,,CLR,0.00,VWS V14.01,2013-03-09 13:21:00,
2013-03-09 08:26:00,32.5,25.1,30.12,SE,131,6.0,7.0,74,0.00,,CLR,0.00,VWS V14.01,2013-03-09 13:26:00,
2013-03-09 08:31:00,32.7,25.3,30.12,SE,124,5.0,8.0,74,0.00,,CLR,0.00,VWS V14.01,2013-03-09 13:31:00,
2013-03-09 08:36:00,32.8,25.4,30.12,ESE,121,1.0,6.0,74,0.00,,CLR,0.00,VWS V14.01,2013-03-09 13:36:00,
2013-03-09 08:41:00,32.9,25.2,30.12,SE,137,2.0,7.0,73,0.00,,CLR,0.00,VWS V14.01,2013-03-09 13:41:00,
2013-03-09 08:46:00,33.1,25.4,30.12,SE,128,0.0,6.0,73,0.00,,CLR,0.00,VWS V14.01,2013-03-09 13:46:00,
2013-03-09 08:51:00,33.2,25.5,30.12,SE,128,0.0,5.0,73,0.00,,CLR,0.00,VWS V14.01,2013-03-09 13:51:00,
2013-03-09 09:01:00,33.5,25.8,30.13,SE,124,3.0,4.0,73,0.00,,CLR,0.00,VWS V14.01,2013-03-09 14:01:00,
2013-03-09 09:11:00,34.0,25.9,30.13,ESE,123,2.0,5.0,72,0.00,,CLR,0.00,VWS V14.01,2013-03-09 14:11:00,
2013-03-09 09:21:00,34.3,26.2,30.12,ESE,114,6.0,6.0,72,0.00,,CLR,0.00,VWS V14.01,2013-03-09 14:21:00,
2013-03-09 09:31:00,34.6,26.2,30.11,SE,130,6.0,11.0,71,0.00,,CLR,0.00,VWS V14.01,2013-03-09 14:31:00,
2013-03-09 09:36:00,35.0,26.2,30.11,ESE,119,6.0,11.0,70,0.00,,CLR,0.00,VWS V14.01,2013-03-09 14:36:00,
2013-03-09 09:41:00,35.0,26.2,30.11,SE,133,8.0,10.0,70,0.00,,OVC120,0.00,VWS V14.01,2013-03-09 14:41:00,
2013-03-09 09:46:00,35.3,26.5,30.10,ESE,116,8.0,12.0,70,0.00,,OVC120,0.00,VWS V14.01,2013-03-09 14:46:00,
2013-03-09 09:51:00,35.3,26.5,30.10,ESE,121,7.0,12.0,70,0.00,,OVC120,0.00,VWS V14.01,2013-03-09 14:51:00,
2013-03-09 09:56:00,35.5,26.7,30.10,ESE,123,9.0,11.0,70,0.00,,OVC120,0.00,VWS V14.01,2013-03-09 14:56:00,
2013-03-09 10:01:00,35.9,26.7,30.10,SE,130,5.0,9.0,69,0.00,,OVC120,0.00,VWS V14.01,2013-03-09 15:01:00,
2013-03-09 10:06:00,36.0,26.8,30.10,SE,140,8.0,8.0,69,0.00,,OVC120,0.00,VWS V14.01,2013-03-09 15:06:00,
2013-03-09 10:11:00,36.3,26.8,30.10,SE,131,1.0,8.0,68,0.00,,OVC120,0.00,VWS V14.01,2013-03-09 15:11:00,
2013-03-09 10:16:00,36.5,26.6,30.10,ESE,107,6.0,9.0,67,0.00,,OVC120,0.00,VWS V14.01,2013-03-09 15:16:00,
2013-03-09 10:21:00,36.6,26.7,30.10,SSE,155,3.0,11.0,67,0.00,,OVC120,0.00,VWS V14.01,2013-03-09 15:21:00,
2013-03-09 10:26:00,36.9,27.0,30.10,SE,134,1.0,7.0,67,0.00,,OVC120,0.00,VWS V14.01,2013-03-09 15:26:00,
2013-03-09 10:31:00,37.0,26.7,30.10,SE,130,2.0,5.0,66,0.00,,OVC120,0.00,VWS V14.01,2013-03-09 15:31:00,
2013-03-09 10:41:00,37.0,26.3,30.10,SSE,158,4.0,8.0,65,0.00,,OVC100,0.00,VWS V14.01,2013-03-09 15:41:00,
2013-03-09 10:46:00,36.9,26.2,30.11,SE,131,3.0,10.0,65,0.00,,OVC100,0.00,VWS V14.01,2013-03-09 15:46:00,
2013-03-09 10:51:00,37.2,26.9,30.11,South,169,7.0,10.0,66,0.00,,OVC100,0.00,VWS V14.01,2013-03-09 15:51:00,
2013-03-09 10:56:00,37.2,26.9,30.11,SSE,158,1.0,7.0,66,0.00,,OVC100,0.00,VWS V14.01,2013-03-09 15:56:00,
2013-03-09 11:01:00,37.3,26.6,30.10,ESE,119,2.0,10.0,65,0.00,,OVC100,0.00,VWS V14.01,2013-03-09 16:01:00,
2013-03-09 11:11:00,37.6,26.9,30.10,ESE,114,3.0,10.0,65,0.00,,OVC100,0.00,VWS V14.01,2013-03-09 16:11:00,
2013-03-09 11:16:00,37.8,27.1,30.09,ESE,113,5.0,9.0,65,0.00,,OVC100,0.00,VWS V14.01,2013-03-09 16:16:00,
2013-03-09 11:21:00,38.2,27.5,30.09,SE,128,8.0,8.0,65,0.00,,OVC100,0.00,VWS V14.01,2013-03-09 16:21:00,
2013-03-09 11:26:00,38.2,27.1,30.09,ESE,121,6.0,9.0,64,0.00,,OVC100,0.00,VWS V14.01,2013-03-09 16:26:00,
2013-03-09 11:31:00,38.0,26.9,30.08,SSE,147,4.0,9.0,64,0.00,,OVC100,0.00,VWS V14.01,2013-03-09 16:31:00,
2013-03-09 11:36:00,38.2,27.5,30.08,SE,126,5.0,8.0,65,0.00,,OVC100,0.00,VWS V14.01,2013-03-09 16:36:00,
2013-03-09 11:41:00,38.5,27.4,30.08,ESE,121,6.0,9.0,64,0.00,,-RA,0.00,VWS V14.01,2013-03-09 16:41:00,
2013-03-09 11:46:00,38.5,27.4,30.08,ESE,117,10.0,10.0,64,0.00,,-RA,0.00,VWS V14.01,2013-03-09 16:46:00,
2013-03-09 11:51:00,38.8,27.7,30.08,ESE,107,6.0,11.0,64,0.00,,-RA,0.00,VWS V14.01,2013-03-09 16:51:00,
2013-03-09 11:56:00,39.3,27.8,30.08,ESE,123,6.0,12.0,63,0.00,,-RA,0.00,VWS V14.01,2013-03-09 16:56:00,
2013-03-09 12:01:00,39.5,27.2,30.05,ESE,110,13.0,16.0,61,0.00,,-RA,0.00,VWS V14.01,2013-03-09 17:01:00,
2013-03-09 12:11:00,39.6,27.3,30.05,ESE,109,11.0,13.0,61,0.00,,-RA,0.00,VWS V14.01,2013-03-09 17:11:00,
2013-03-09 12:16:00,39.8,27.5,30.04,ESE,119,12.0,14.0,61,0.00,,-RA,0.00,VWS V14.01,2013-03-09 17:16:00,
2013-03-09 12:21:00,39.8,27.5,30.04,ESE,120,10.0,14.0,61,0.00,,-RA,0.00,VWS V14.01,2013-03-09 17:21:00,
2013-03-09 12:26:00,39.9,27.6,30.04,ESE,117,11.0,17.0,61,0.00,,-RA,0.00,VWS V14.01,2013-03-09 17:26:00,
2013-03-09 12:36:00,40.3,27.5,30.03,ESE,112,12.0,17.0,60,0.00,,-RA,0.00,VWS V14.01,2013-03-09 17:36:00,
2013-03-09 12:41:00,40.5,27.7,30.03,ESE,116,10.0,15.0,60,0.00,,BKN100,0.00,VWS V14.01,2013-03-09 17:41:00,
2013-03-09 12:51:00,40.9,27.7,30.01,ESE,113,12.0,18.0,59,0.00,,BKN100,0.00,VWS V14.01,2013-03-09 17:51:00,
2013-03-09 12:56:00,41.3,28.1,30.01,ESE,110,10.0,16.0,59,0.00,,BKN100,0.00,VWS V14.01,2013-03-09 17:56:00,
2013-03-09 13:01:00,41.8,28.1,30.01,ESE,109,7.0,13.0,58,0.00,,BKN100,0.00,VWS V14.01,2013-03-09 18:01:00,
2013-03-09 13:06:00,41.8,28.1,30.01,ESE,121,11.0,12.0,58,0.00,,BKN100,0.00,VWS V14.01,2013-03-09 18:06:00,
2013-03-09 13:11:00,41.6,27.9,30.01,ESE,113,11.0,12.0,58,0.00,,BKN100,0.00,VWS V14.01,2013-03-09 18:11:00,
2013-03-09 13:16:00,41.5,27.8,30.00,ESE,120,7.0,14.0,58,0.00,,BKN100,0.00,VWS V14.01,2013-03-09 18:16:00,
2013-03-09 13:21:00,41.5,27.8,30.00,SE,124,8.0,14.0,58,0.00,,BKN100,0.00,VWS V14.01,2013-03-09 18:21:00,
2013-03-09 13:31:00,41.6,28.4,29.99,SE,126,13.0,14.0,59,0.00,,BKN100,0.00,VWS V14.01,2013-03-09 18:31:00,
2013-03-09 13:36:00,41.5,28.3,29.99,ESE,117,13.0,16.0,59,0.00,,BKN100,0.00,VWS V14.01,2013-03-09 18:36:00,
2013-03-09 13:41:00,41.5,28.3,29.99,ESE,112,8.0,14.0,59,0.00,,BKN110,0.00,VWS V14.01,2013-03-09 18:41:00,
2013-03-09 13:46:00,41.5,28.3,29.99,ESE,121,5.0,11.0,59,0.00,,BKN110,0.00,VWS V14.01,2013-03-09 18:46:00,
2013-03-09 13:56:00,42.2,28.5,29.99,ESE,114,2.0,8.0,58,0.00,,BKN110,0.00,VWS V14.01,2013-03-09 18:56:00,
2013-03-09 14:01:00,42.2,28.1,29.98,ESE,109,7.0,13.0,57,0.00,,BKN110,0.00,VWS V14.01,2013-03-09 19:01:00,
2013-03-09 14:11:00,42.1,28.4,29.98,ESE,114,6.0,11.0,58,0.00,,BKN110,0.00,VWS V14.01,2013-03-09 19:11:00,
2013-03-09 14:16:00,41.9,28.6,29.97,ESE,121,8.0,14.0,59,0.00,,BKN110,0.00,VWS V14.01,2013-03-09 19:16:00,
2013-03-09 14:21:00,41.9,28.6,29.97,ESE,103,7.0,11.0,59,0.00,,BKN110,0.00,VWS V14.01,2013-03-09 19:21:00,
2013-03-09 14:26:00,41.8,28.5,29.97,ESE,116,10.0,12.0,59,0.00,,BKN110,0.00,VWS V14.01,2013-03-09 19:26:00,
2013-03-09 14:31:00,41.9,28.6,29.96,ESE,102,6.0,12.0,59,0.00,,BKN110,0.00,VWS V14.01,2013-03-09 19:31:00,
2013-03-09 14:36:00,41.9,28.6,29.96,SE,136,7.0,12.0,59,0.00,,BKN110,0.00,VWS V14.01,2013-03-09 19:36:00,
2013-03-09 14:46:00,41.9,28.6,29.96,SE,130,6.0,10.0,59,0.00,,CLR,0.00,VWS V14.01,2013-03-09 19:46:00,
2013-03-09 14:56:00,42.1,29.2,29.96,ESE,119,4.0,9.0,60,0.00,,CLR,0.00,VWS V14.01,2013-03-09 19:56:00,
2013-03-09 15:01:00,42.1,29.2,29.94,ESE,110,4.0,7.0,60,0.00,,CLR,0.00,VWS V14.01,2013-03-09 20:01:00,
2013-03-09 15:11:00,42.2,29.3,29.94,ESE,103,7.0,10.0,60,0.00,,CLR,0.00,VWS V14.01,2013-03-09 20:11:00,
2013-03-09 15:16:00,42.1,29.2,29.93,ESE,112,6.0,10.0,60,0.00,,CLR,0.00,VWS V14.01,2013-03-09 20:16:00,
2013-03-09 15:21:00,41.9,29.0,29.93,ESE,110,7.0,11.0,60,0.00,,CLR,0.00,VWS V14.01,2013-03-09 20:21:00,
2013-03-09 15:26:00,41.8,29.4,29.93,ESE,119,9.0,11.0,61,0.00,,CLR,0.00,VWS V14.01,2013-03-09 20:26:00,
2013-03-09 15:36:00,41.3,29.3,29.93,ESE,116,5.0,10.0,62,0.00,,CLR,0.00,VWS V14.01,2013-03-09 20:36:00,
2013-03-09 15:41:00,41.2,30.0,29.93,ESE,110,6.0,9.0,64,0.00,,BKN120,0.00,VWS V14.01,2013-03-09 20:41:00,
2013-03-09 15:46:00,40.8,30.0,29.93,ESE,119,5.0,12.0,65,0.00,,BKN120,0.00,VWS V14.01,2013-03-09 20:46:00,
2013-03-09 15:51:00,40.6,30.1,29.93,ESE,110,8.0,11.0,66,0.00,,BKN120,0.00,VWS V14.01,2013-03-09 20:51:00,
2013-03-09 15:56:00,40.6,30.1,29.93,ESE,116,11.0,11.0,66,0.00,,BKN120,0.00,VWS V14.01,2013-03-09 20:56:00,
2013-03-09 16:01:00,40.5,30.0,29.92,ESE,116,6.0,12.0,66,0.00,,BKN120,0.00,VWS V14.01,2013-03-09 21:01:00,
2013-03-09 16:06:00,40.6,29.8,29.92,ESE,117,6.0,11.0,65,0.00,,BKN120,0.00,VWS V14.01,2013-03-09 21:06:00,
2013-03-09 16:11:00,40.8,30.0,29.92,ESE,114,2.0,11.0,65,0.00,,BKN120,0.00,VWS V14.01,2013-03-09 21:11:00,
2013-03-09 16:16:00,40.9,30.1,29.92,ESE,107,6.0,10.0,65,0.00,,BKN120,0.00,VWS V14.01,2013-03-09 21:16:00,
2013-03-09 16:21:00,41.2,30.0,29.92,ESE,102,10.0,12.0,64,0.00,,BKN120,0.00,VWS V14.01,2013-03-09 21:21:00,
2013-03-09 16:26:00,41.2,30.0,29.92,ESE,112,11.0,14.0,64,0.00,,BKN120,0.00,VWS V14.01,2013-03-09 21:26:00,
2013-03-09 16:31:00,40.9,29.7,29.90,SE,130,13.0,13.0,64,0.00,,BKN120,0.00,VWS V14.01,2013-03-09 21:31:00,
2013-03-09 16:36:00,40.6,29.8,29.90,SE,131,8.0,13.0,65,0.00,,BKN120,0.00,VWS V14.01,2013-03-09 21:36:00,
2013-03-09 16:41:00,40.6,29.8,29.90,East,100,5.0,12.0,65,0.00,,OVC100,0.00,VWS V14.01,2013-03-09 21:41:00,
2013-03-09 16:46:00,40.6,29.8,29.90,ESE,123,9.0,11.0,65,0.00,,OVC100,0.00,VWS V14.01,2013-03-09 21:46:00,
2013-03-09 16:51:00,40.6,29.8,29.90,ESE,110,5.0,11.0,65,0.00,,OVC100,0.00,VWS V14.01,2013-03-09 21:51:00,
2013-03-09 16:56:00,40.6,29.8,29.90,East,95,4.0,12.0,65,0.00,,OVC100,0.00,VWS V14.01,2013-03-09 21:56:00,
2013-03-09 17:01:00,40.6,29.8,29.90,SE,128,8.0,11.0,65,0.00,,OVC100,0.00,VWS V14.01,2013-03-09 22:01:00,
2013-03-09 17:11:00,40.5,30.0,29.90,ESE,110,5.0,11.0,66,0.00,,OVC100,0.00,VWS V14.01,2013-03-09 22:11:00,
2013-03-09 17:16:00,40.3,30.2,29.90,ESE,112,6.0,12.0,67,0.00,,OVC100,0.00,VWS V14.01,2013-03-09 22:16:00,
2013-03-09 17:21:00,40.2,30.5,29.90,SE,126,8.0,11.0,68,0.00,,OVC100,0.00,VWS V14.01,2013-03-09 22:21:00,
2013-03-09 17:26:00,40.1,30.8,29.90,ESE,120,6.0,10.0,69,0.00,,OVC100,0.00,VWS V14.01,2013-03-09 22:26:00,
2013-03-09 17:31:00,40.1,30.8,29.89,SE,128,8.0,11.0,69,0.00,,OVC100,0.00,VWS V14.01,2013-03-09 22:31:00,
2013-03-09 17:36:00,39.9,30.9,29.89,ESE,109,3.0,11.0,70,0.00,,OVC100,0.00,VWS V14.01,2013-03-09 22:36:00,
2013-03-09 17:41:00,40.1,30.8,29.89,SE,131,7.0,10.0,69,0.00,,OVC100,0.00,VWS V14.01,2013-03-09 22:41:00,
2013-03-09 17:46:00,39.9,30.9,29.89,ESE,106,5.0,9.0,70,0.00,,OVC100,0.00,VWS V14.01,2013-03-09 22:46:00,
2013-03-09 17:51:00,39.9,30.9,29.89,ESE,113,7.0,12.0,70,0.00,,OVC100,0.00,VWS V14.01,2013-03-09 22:51:00,
2013-03-09 17:56:00,39.8,30.8,29.89,SE,128,6.0,10.0,70,0.00,,OVC100,0.00,VWS V14.01,2013-03-09 22:56:00,
2013-03-09 18:01:00,39.8,30.8,29.88,ESE,119,11.0,11.0,70,0.00,,OVC100,0.00,VWS V14.01,2013-03-09 23:01:00,
2013-03-09 18:06:00,39.9,30.9,29.88,ESE,110,8.0,11.0,70,0.00,,OVC100,0.00,VWS V14.01,2013-03-09 23:06:00,
2013-03-09 18:11:00,39.8,30.8,29.88,SE,126,7.0,11.0,70,0.00,,OVC100,0.00,VWS V14.01,2013-03-09 23:11:00,
2013-03-09 18:16:00,39.8,30.8,29.87,ESE,113,7.0,10.0,70,0.00,,OVC100,0.00,VWS V14.01,2013-03-09 23:16:00,
2013-03-09 18:21:00,39.8,30.8,29.87,East,95,5.0,12.0,70,0.00,,OVC100,0.00,VWS V14.01,2013-03-09 23:21:00,
2013-03-09 18:26:00,39.6,31.0,29.87,SSE,147,7.0,12.0,71,0.00,,OVC100,0.00,VWS V14.01,2013-03-09 23:26:00,
2013-03-09 18:31:00,39.6,31.0,29.87,ESE,117,6.0,11.0,71,0.00,,OVC100,0.00,VWS V14.01,2013-03-09 23:31:00,
2013-03-09 18:36:00,39.6,31.3,29.87,ESE,107,7.0,11.0,72,0.00,,OVC100,0.00,VWS V14.01,2013-03-09 23:36:00,
2013-03-09 18:41:00,39.6,31.3,29.87,East,93,10.0,11.0,72,0.00,,-RA,0.00,VWS V14.01,2013-03-09 23:41:00,
2013-03-09 18:46:00,39.6,31.3,29.86,SE,124,8.0,13.0,72,0.00,,-RA,0.00,VWS V14.01,2013-03-09 23:46:00,
2013-03-09 18:51:00,39.6,31.3,29.86,ESE,102,8.0,13.0,72,0.00,,-RA,0.00,VWS V14.01,2013-03-09 23:51:00,
2013-03-09 18:56:00,39.5,31.2,29.86,ESE,120,8.0,13.0,72,0.00,,-RA,0.00,VWS V14.01,2013-03-09 23:56:00,
2013-03-09 19:01:00,39.5,31.2,29.86,ESE,113,7.0,12.0,72,0.00,,-RA,0.00,VWS V14.01,2013-03-10 00:01:00,
2013-03-09 19:06:00,39.5,31.6,29.86,ESE,113,7.0,12.0,73,0.00,,-RA,0.00,VWS V14.01,2013-03-10 00:06:00,
2013-03-09 19:11:00,39.5,31.6,29.86,ESE,120,7.0,12.0,73,0.00,,-RA,0.00,VWS V14.01,2013-03-10 00:11:00,
2013-03-09 19:21:00,39.6,31.7,29.85,SE,140,8.0,12.0,73,0.00,,-RA,0.00,VWS V14.01,2013-03-10 00:21:00,
2013-03-09 19:26:00,39.8,31.9,29.85,ESE,110,5.0,12.0,73,0.00,,-RA,0.00,VWS V14.01,2013-03-10 00:26:00,
2013-03-09 19:31:00,39.8,31.9,29.85,ESE,102,7.0,13.0,73,0.00,,-RA,0.00,VWS V14.01,2013-03-10 00:31:00,
2013-03-09 19:36:00,39.8,31.9,29.85,SE,126,8.0,12.0,73,0.00,,-RA,0.00,VWS V14.01,2013-03-10 00:36:00,
2013-03-09 19:41:00,39.8,31.9,29.85,ESE,119,9.0,12.0,73,0.00,,BKN120,0.00,VWS V14.01,2013-03-10 00:41:00,
2013-03-09 19:46:00,39.6,31.7,29.85,SE,127,7.0,11.0,73,0.00,,BKN120,0.00,VWS V14.01,2013-03-10 00:46:00,
2013-03-09 19:51:00,39.6,31.7,29.85,ESE,120,6.0,11.0,73,0.00,,BKN120,0.00,VWS V14.01,2013-03-10 00:51:00,
2013-03-09 19:56:00,39.6,32.0,29.85,ESE,109,6.0,12.0,74,0.00,,BKN120,0.00,VWS V14.01,2013-03-10 00:56:00,
2013-03-09 20:01:00,39.8,32.2,29.84,ESE,120,7.0,12.0,74,0.00,,BKN120,0.00,VWS V14.01,2013-03-10 01:01:00,
2013-03-09 20:11:00,39.8,32.2,29.84,ESE,121,10.0,11.0,74,0.00,,BKN120,0.00,VWS V14.01,2013-03-10 01:11:00,
2013-03-09 20:16:00,39.8,32.2,29.83,ESE,112,8.0,13.0,74,0.00,,BKN120,0.00,VWS V14.01,2013-03-10 01:16:00,
2013-03-09 20:26:00,39.9,32.3,29.83,ESE,106,8.0,14.0,74,0.00,,BKN120,0.00,VWS V14.01,2013-03-10 01:26:00,
2013-03-09 20:31:00,39.8,32.2,29.82,ESE,103,6.0,14.0,74,0.00,,BKN120,0.00,VWS V14.01,2013-03-10 01:31:00,
2013-03-09 20:36:00,39.8,32.2,29.82,ESE,116,5.0,12.0,74,0.00,,BKN120,0.00,VWS V14.01,2013-03-10 01:36:00,
2013-03-09 20:41:00,40.1,32.5,29.82,ESE,116,6.0,12.0,74,0.00,,BKN110,0.00,VWS V14.01,2013-03-10 01:41:00,
2013-03-09 20:46:00,40.3,32.0,29.81,ESE,116,10.0,17.0,72,0.00,,BKN110,0.00,VWS V14.01,2013-03-10 01:46:00,
2013-03-09 20:51:00,40.2,32.2,29.81,SE,130,5.0,12.0,73,0.00,,BKN110,0.00,VWS V14.01,2013-03-10 01:51:00,
2013-03-09 20:56:00,40.2,31.9,29.81,ESE,110,10.0,13.0,72,0.00,,BKN110,0.00,VWS V14.01,2013-03-10 01:56:00,
2013-03-09 21:06:00,40.2,32.2,29.80,ESE,116,7.0,13.0,73,0.00,,BKN110,0.00,VWS V14.01,2013-03-10 02:06:00,
2013-03-09 21:16:00,40.2,32.2,29.80,ESE,117,7.0,10.0,73,0.00,,BKN110,0.00,VWS V14.01,2013-03-10 02:16:00,
2013-03-09 21:21:00,40.1,32.2,29.80,SE,136,7.0,8.0,73,0.00,,BKN110,0.00,VWS V14.01,2013-03-10 02:21:00,
2013-03-09 21:26:00,40.2,32.2,29.80,East,99,6.0,9.0,73,0.00,,BKN110,0.00,VWS V14.01,2013-03-10 02:26:00,
2013-03-09 21:31:00,40.3,32.3,29.80,ESE,120,6.0,9.0,73,0.00,,BKN110,0.00,VWS V14.01,2013-03-10 02:31:00,
2013-03-09 21:36:00,40.5,32.2,29.80,ESE,103,3.0,10.0,72,0.00,,BKN110,0.00,VWS V14.01,2013-03-10 02:36:00,
2013-03-09 21:41:00,40.6,32.3,29.80,ESE,114,4.0,10.0,72,0.00,,FEW120,0.00,VWS V14.01,2013-03-10 02:41:00,
2013-03-09 21:46:00,40.6,32.3,29.80,ESE,112,7.0,10.0,72,0.00,,FEW120,0.00,VWS V14.01,2013-03-10 02:46:00,
2013-03-09 21:51:00,40.6,32.3,29.80,SE,145,0.0,10.0,72,0.00,,FEW120,0.00,VWS V14.01,2013-03-10 02:51:00,
2013-03-09 22:01:00,40.3,32.0,29.80,SE,137,6.0,8.0,72,0.00,,FEW120,0.00,VWS V14.01,2013-03-10 03:01:00,
2013-03-09 22:11:00,40.2,31.9,29.80,SE,124,6.0,7.0,72,0.00,,FEW120,0.00,VWS V14.01,2013-03-10 03:11:00,
2013-03-09 22:16:00,40.1,32.2,29.80,ESE,117,4.0,6.0,73,0.00,,FEW120,0.00,VWS V14.01,2013-03-10 03:16:00,
2013-03-09 22:21:00,39.9,32.0,29.80,ESE,117,3.0,4.0,73,0.00,,FEW120,0.00,VWS V14.01,2013-03-10 03:21:00,
2013-03-09 22:26:00,39.8,31.9,29.80,ESE,121,3.0,8.0,73,0.00,,FEW120,0.00,VWS V14.01,2013-03-10 03:26:00,
2013-03-09 22:31:00,39.8,31.9,29.79,SE,124,2.0,6.0,73,0.00,,FEW120,0.00,VWS V14.01,2013-03-10 03:31:00,
2013-03-09 22:36:00,39.6,32.0,29.79,SE,128,2.0,6.0,74,0.00,,FEW120,0.00,VWS V14.01,2013-03-10 03:36:00,
2013-03-09 22:46:00,39.8,32.2,29.79,SE,137,3.0,6.0,74,0.00,,CLR,0.00,VWS V14.01,2013-03-10 03:46:00,
2013-03-09 22:51:00,39.9,32.0,29.79,SE,127,0.0,5.0,73,0.00,,CLR,0.00,VWS V14.01,2013-03-10 03:51:00,
2013-03-09 22:56:00,40.2,32.2,29.79,SE,133,1.0,6.0,73,0.00,,CLR,0.00,VWS V14.01,2013-03-10 03:56:00,
2013-03-09 23:01:00,40.8,32.5,29.78,SSE,160,3.0,8.0,72,0.00,,CLR,0.00,VWS V14.01,2013-03-10 04:01:00,
2013-03-09 23:11:00,41.3,32.3,29.78,SE,133,3.0,8.0,70,0.00,,CLR,0.00,VWS V14.01,2013-03-10 04:11:00,
2013-03-09 23:16:00,41.9,32.5,29.78,SE,128,2.0,10.0,69,0.00,,CLR,0.00,VWS V14.01,2013-03-10 04:16:00,
2013-03-09 23:26:00,42.6,32.4,29.78,SE,138,2.0,8.0,67,0.00,,CLR,0.00,VWS V14.01,2013-03-10 04:26:00,
2013-03-09 23:31:00,42.8,32.2,29.77,SSE,161,6.0,7.0,66,0.00,,CLR,0.00,VWS V14.01,2013-03-10 04:31:00,
2013-03-09 23:36:00,42.9,32.3,29.77,SE,131,4.0,9.0,66,0.00,,CLR,0.00,VWS V14.01,2013-03-10 04:36:00,
2013-03-09 23:46:00,43.3,32.3,29.77,SE,131,6.0,8.0,65,0.00,,CLR,0.00,VWS V14.01,2013-03-10 04:46:00,
2013-03-09 23:51:00,43.6,32.2,29.77,SSE,150,1.0,10.0,64,0.00,,CLR,0.00,VWS V14.01,2013-03-10 04:51:00,